[[{"header":{"parameterUnit":"m.s-1","parameterCategory":1,"la1":30.2991,"la2":30.254,"lo1":-89.0895,"lo2":-89.0444,"dy":0.0017,"dx":0.0017,"nx":28,"ny":28,"refTime":"2023-09-03T03:00:00:Z","depth":0,"parameterNumber":2,"parameterNumberName":"U-component_of_WINDS"},"data":[0,0,0,0,0,0,0,0,0,0,0,0,0,0,0,0,0,0,0,0,0,0,0,0,0,0,0,0,0,0,0,0,0,0,0,0,0,0,0,0,0,0,0,0,0,0,0,0,0,0,0,0,0,0,0,0,0,0,-3.2621,-3.2622,0,-3.2721,-3.2723,-3.2724,-3.2685,-3.2683,-3.268,-3.2678,-3.2779,-3.2784,-3.2789,0,0,0,0,0,0,0,0,0,0,0,0,0,-3.2392,-3.2397,-3.2621,-3.2622,-3.2623,-3.2721,-3.2723,-3.2724,-3.2685,-3.2683,-3.268,-3.2677,-3.2778,-3.2784,-3.2789,0,0,0,0,0,0,0,0,0,0,0,0,0,-3.2492,-3.2398,-3.262,-3.2616,-3.2616,-3.2721,-3.2723,-3.2724,-3.2686,-3.2683,-3.2679,-3.2676,-3.2776,-3.2783,-3.279,-3.2905,0,0,-3.2812,-3.2816,0,0,0,0,0,0,0,0,-3.2486,-3.25,-3.2615,-3.2616,-3.2617,-3.2687,-3.2679,-3.2785,-3.2687,-3.266,-3.2678,-3.2674,-3.2751,-3.276,-3.2787,-3.2909,-3.2914,-3.2813,-3.2817,-3.2821,-3.2823,0,0,0,0,0,0,0,-3.248,-3.2496,-3.266,-3.2617,-3.2618,-3.2608,-3.2618,-3.2699,-3.2724,-3.2662,-3.2659,-3.2672,-3.2751,-3.278,-3.2789,-3.2915,-3.2813,-3.2819,-3.2824,-3.2827,-3.3134,-3.3138,0,0,0,0,0,0,-3.2473,-3.249,-3.2657,-3.2663,-3.2542,-3.2615,-3.2626,-3.2668,-3.2723,-3.2728,-3.2675,-3.267,-3.2769,-3.2781,-3.2792,-3.2928,-3.2821,-3.2827,-3.2832,-3.3131,-3.3135,-3.3139,0,0,0,0,0,0,-3.2468,-3.2488,-3.2653,-3.2576,-3.2597,-3.2622,-3.267,-3.2672,-3.2701,-3.2732,-3.2736,-3.27,-3.2767,-3.2782,-3.2877,-3.2931,-3.2831,-3.2837,-3.3126,-3.3132,-3.3137,-3.3201,0,0,0,0,0,0,-3.2461,-3.2486,-3.2531,-3.2578,-3.2601,-3.2737,-3.2673,-3.2676,-3.2714,-3.2708,-3.2757,-3.2762,-3.2765,-3.2866,-3.2884,-3.2939,-3.2843,-3.3121,-3.3129,-3.3136,-3.3194,-3.3209,-3.3221,0,0,0,0,0,-3.2453,-3.2545,-3.2533,-3.2553,-3.2657,-3.274,-3.2753,-3.2756,-3.2718,-3.2762,-3.2783,-3.276,-3.2923,-3.2876,-3.2896,-3.2954,-3.3118,-3.3127,-3.3135,-3.3189,-3.3206,-3.322,0,0,0,0,0,0,-3.2503,-3.2551,-3.2538,-3.2648,-3.269,-3.2733,-3.2789,-3.2774,-3.2828,-3.282,-3.2821,-3.2833,-3.2929,-3.2952,-3.2899,-3.3067,-3.3015,-3.3027,-3.3048,-3.3065,-3.3078,-3.3069,-3.2849,0,0,0,0,0,-3.2527,-3.2591,-3.2629,-3.2722,-3.2744,-3.2763,-3.2799,-3.2798,-3.2841,-3.2859,-3.2886,-3.2928,-3.2989,-3.3029,-3.3086,-3.3198,-3.3207,-3.3248,-3.3261,-3.3272,-3.3282,-3.3341,-3.3359,-3.3168,-3.3168,-3.3167,0,0,-3.2576,-3.261,-3.265,-3.2732,-3.2765,-3.283,-3.2778,-3.285,-3.2897,-3.2869,-3.296,-3.2982,-3.3029,-3.3132,-3.3179,-3.3154,-3.3337,-3.3283,-3.3291,-3.3296,-3.3352,-3.337,-3.3386,-3.3173,-3.3172,-3.3171,0,0,-3.2698,-3.2732,-3.2811,-3.2845,-3.2896,-3.2908,-3.2927,-3.2973,-3.2986,-3.3077,-3.3057,-3.3114,-3.3219,-3.3253,-3.3284,-3.342,-3.34,-3.3439,-3.3506,-3.3563,-3.3578,-3.3591,-3.3637,-3.3654,-3.3449,-3.345,-3.345,0,-3.2753,-3.2851,-3.2854,-3.2927,-3.2963,-3.2942,-3.3022,-3.3054,-3.3121,-3.3145,-3.3117,-3.3247,-3.3277,-3.3387,-3.342,-3.3447,-3.3468,-3.3432,-3.3576,-3.3589,-3.3602,-3.3645,-3.3663,-3.3454,-3.3453,-3.3453,-3.3452,0,-3.2914,-3.2982,-3.3041,-3.3105,-3.3148,-3.3225,-3.3238,-3.3281,-3.3277,-3.3292,-3.3384,-3.342,-3.3484,-3.3511,-3.3507,-3.362,-3.3602,-3.3575,-3.3522,-3.3624,-3.3665,-3.3682,-3.346,-3.3458,-3.3457,-3.3456,0,0,-3.3068,-3.3134,-3.3155,-3.3184,-3.3238,-3.329,-3.3366,-3.3428,-3.3464,-3.3511,-3.3572,-3.3662,-3.3637,-3.3672,-3.3672,-3.3723,-3.3825,-3.3689,-3.369,-3.3711,-3.3949,-3.3967,-3.3987,-3.3814,-3.3817,-3.382,-3.3944,0,-3.3193,-3.3324,-3.333,-3.3449,-3.3511,-3.3492,-3.3557,-3.3597,-3.3613,-3.3668,-3.3686,-3.3748,-3.3712,-3.3732,-3.3782,-3.3802,-3.3872,-3.3794,-3.3869,-3.3871,-3.3854,-3.4008,-3.4028,-3.4143,-3.3961,-3.3963,-3.3965,0,-3.3355,-3.3407,-3.3533,-3.3577,-3.3603,-3.3661,-3.3719,-3.3772,-3.3816,-3.3824,-3.3864,-3.3857,-3.3932,-3.3879,-3.3982,-3.3928,-3.3959,-3.3974,-3.3979,-3.3983,-3.3922,-3.4014,-3.4181,-3.4197,-3.3991,-3.3989,-3.3987,0,-3.3451,-3.3553,-3.3641,-3.3666,-3.3721,-3.3762,-3.3786,-3.3828,-3.3865,-3.3915,-3.3939,-3.3998,-3.4029,-3.4074,-3.4082,-3.4043,-3.4185,-3.4133,-3.4192,-3.4191,-3.422,-3.4217,-3.439,-3.4245,-3.4245,-3.4245,-3.4244,0,-3.3588,-3.3664,-3.3684,-3.3738,-3.3823,-3.3829,-3.3913,-3.3934,-3.3971,-3.4028,-3.4017,-3.407,-3.4079,-3.4134,-3.4141,-3.4224,-3.4239,-3.4246,-3.4247,-3.4246,-3.4244,-3.4264,-3.4255,-3.4249,-3.4248,-3.4247,-3.4247,0,-3.3708,-3.3725,-3.3819,-3.3863,-3.3876,-3.3937,-3.3974,-3.4025,-3.4041,-3.4113,-3.413,-3.4154,-3.4218,-3.4232,-3.4308,-3.4313,-3.441,-3.4404,-3.4395,-3.4393,-3.4451,-3.4444,-3.464,-3.4665,-3.4507,-3.4508,-3.4509,0,-3.3792,-3.3851,-3.3902,-3.3939,-3.3966,-3.4026,-3.4064,-3.4072,-3.4112,-3.4167,-3.4211,-3.4274,-3.4325,-3.4429,-3.4452,-3.451,-3.4504,-3.4569,-3.4512,-3.4509,-3.4501,-3.4496,-3.4501,-3.4578,-3.458,-3.4581,-3.4582,0,-3.3939,-3.3944,-3.4,-3.4058,-3.4104,-3.415,-3.4194,-3.4225,-3.424,-3.4285,-3.4351,-3.439,-3.4468,-3.453,-3.4588,-3.4613,-3.4599,-3.46,-3.4617,-3.4614,-3.4605,-3.4608,-3.4421,-3.4595,-3.4594,-3.4593,-3.4592,-3.4592,-3.4042,-3.4092,-3.4136,-3.4197,-3.4232,-3.4273,-3.4322,-3.4345,-3.44,-3.4464,-3.4466,-3.4537,-3.458,-3.4657,-3.4685,-3.474,-3.4719,-3.4744,-3.4749,-3.4754,-3.4758,-3.4599,-3.4751,-3.4751,-3.475,-3.475,-3.475,0,-3.4185,-3.4212,-3.4269,-3.4331,-3.438,-3.4365,-3.4413,-3.4454,-3.4517,-3.4558,-3.4608,-3.4683,-3.4744,-3.4773,-3.4832,-3.4871,-3.4866,-3.4886,-3.4881,-3.4887,-3.4774,-3.4753,-3.4889,-3.4889,-3.4889,-3.4888,-3.4888,-3.4888,-3.4265,-3.4349,-3.436,-3.446,-3.4487,-3.4557,-3.4585,-3.4623,-3.4656,-3.474,-3.479,-3.4809,-3.4845,-3.4907,-3.4962,-3.4969,-3.499,-3.5012,-3.5015,-3.4909,-3.4895,-3.4881,-3.4861,-3.5017,-3.5017,-3.5123,-3.5124,-3.5125]},{"header":{"parameterUnit":"m.s-1","parameterCategory":1,"la1":30.2991,"la2":30.254,"lo1":-89.0895,"lo2":-89.0444,"dy":0.0017,"dx":0.0017,"nx":28,"ny":28,"refTime":"2023-09-03T03:00:00:Z","depth":0,"parameterNumber":3,"parameterNumberName":"V-component_of_WINDS"},"data":[0,0,0,0,0,0,0,0,0,0,0,0,0,0,0,0,0,0,0,0,0,0,0,0,0,0,0,0,0,0,0,0,0,0,0,0,0,0,0,0,0,0,0,0,0,0,0,0,0,0,0,0,0,0,0,0,0,0,-0.9483,-0.9485,0,-0.9623,-0.9625,-0.9626,-0.9713,-0.9714,-0.9714,-0.9715,-0.9856,-0.9859,-0.9862,0,0,0,0,0,0,0,0,0,0,0,0,0,-0.9289,-0.9292,-0.9483,-0.9485,-0.9487,-0.9623,-0.9625,-0.9627,-0.9713,-0.9714,-0.9714,-0.9715,-0.9855,-0.9858,-0.9862,0,0,0,0,0,0,0,0,0,0,0,0,0,-0.9395,-0.9293,-0.9483,-0.9546,-0.9553,-0.9623,-0.9625,-0.9627,-0.9713,-0.9714,-0.9715,-0.9715,-0.9853,-0.9858,-0.9863,-0.9879,0,0,-0.9878,-0.988,0,0,0,0,0,0,0,0,-0.9389,-0.9402,-0.9535,-0.9542,-0.955,-0.9652,-0.9608,-0.9712,-0.9713,-0.9652,-0.9715,-0.9716,-0.9787,-0.9797,-0.9822,-0.9886,-0.9892,-0.9879,-0.9882,-0.9884,-0.9885,0,0,0,0,0,0,0,-0.9382,-0.9397,-0.9538,-0.9537,-0.9546,-0.9567,-0.9583,-0.9628,-0.9714,-0.9658,-0.9664,-0.968,-0.9791,-0.9817,-0.9826,-0.9894,-0.9878,-0.9883,-0.9886,-0.9888,-0.9979,-0.9979,0,0,0,0,0,0,-0.9364,-0.939,-0.9534,-0.9543,-0.947,-0.957,-0.9588,-0.9618,-0.9714,-0.9729,-0.9679,-0.9683,-0.9808,-0.982,-0.9831,-0.9857,-0.9884,-0.9888,-0.9891,-0.998,-0.9979,-0.9979,0,0,0,0,0,0,-0.936,-0.9376,-0.9528,-0.9468,-0.9489,-0.9573,-0.9606,-0.9621,-0.9647,-0.973,-0.9745,-0.969,-0.9809,-0.9824,-0.9867,-0.9863,-0.9891,-0.9895,-0.998,-0.998,-0.9979,-0.9909,0,0,0,0,0,0,-0.9354,-0.9374,-0.9382,-0.9468,-0.9492,-0.9562,-0.9606,-0.9623,-0.9655,-0.9662,-0.9744,-0.9758,-0.9811,-0.9859,-0.9872,-0.9871,-0.9899,-0.9981,-0.998,-0.9979,-0.9912,-0.9905,-0.99,0,0,0,0,0,-0.9347,-0.9355,-0.9381,-0.9398,-0.9503,-0.9562,-0.9575,-0.9637,-0.9655,-0.9663,-0.9716,-0.9756,-0.9862,-0.9863,-0.9878,-0.9878,-0.9982,-0.998,-0.9979,-0.9914,-0.9907,-0.99,0,0,0,0,0,0,-0.9265,-0.9368,-0.9398,-0.9435,-0.9489,-0.9576,-0.9588,-0.9627,-0.9676,-0.968,-0.9753,-0.9771,-0.9807,-0.9847,-0.9846,-0.9899,-0.9926,-0.9928,-0.9872,-0.9865,-0.986,-0.9849,-0.9903,0,0,0,0,0,-0.9252,-0.9292,-0.9379,-0.9403,-0.9429,-0.9503,-0.9531,-0.9574,-0.9632,-0.9655,-0.9712,-0.9767,-0.9813,-0.9841,-0.9888,-0.9918,-0.9937,-0.9926,-0.992,-0.9915,-0.9915,-0.9934,-0.993,-0.9974,-0.9974,-0.9975,0,0,-0.9224,-0.9285,-0.9305,-0.9388,-0.9435,-0.9474,-0.9522,-0.9561,-0.9591,-0.9661,-0.9705,-0.9749,-0.9815,-0.9851,-0.987,-0.9886,-0.9907,-0.9913,-0.9908,-0.9912,-0.9933,-0.9928,-0.9925,-0.9974,-0.9974,-0.9974,0,0,-0.9193,-0.9243,-0.927,-0.9316,-0.9387,-0.9437,-0.9443,-0.9525,-0.9557,-0.9603,-0.9657,-0.9693,-0.977,-0.9815,-0.9848,-0.9836,-0.9874,-0.9849,-0.9819,-0.9836,-0.9833,-0.983,-0.9826,-0.9823,-0.9849,-0.9849,-0.9849,0,-0.9149,-0.9211,-0.9278,-0.9314,-0.9349,-0.9416,-0.9443,-0.9485,-0.9566,-0.9589,-0.9606,-0.9705,-0.9754,-0.9802,-0.9799,-0.9824,-0.9833,-0.9839,-0.9828,-0.9826,-0.9825,-0.9821,-0.9819,-0.9845,-0.9846,-0.9846,-0.9847,0,-0.9154,-0.9196,-0.9208,-0.9287,-0.9323,-0.9354,-0.9425,-0.9454,-0.9494,-0.9542,-0.9588,-0.9649,-0.971,-0.9725,-0.9763,-0.9779,-0.9786,-0.9815,-0.9843,-0.9816,-0.9814,-0.9813,-0.984,-0.9842,-0.9843,-0.9844,0,0,-0.9074,-0.9191,-0.9194,-0.9231,-0.9315,-0.9349,-0.9383,-0.9444,-0.9467,-0.9521,-0.9552,-0.9616,-0.9644,-0.9681,-0.9725,-0.9741,-0.9727,-0.9768,-0.9771,-0.9758,-0.9748,-0.9726,-0.9723,-0.9754,-0.9754,-0.9754,-0.9742,0,-0.9055,-0.9122,-0.9183,-0.9227,-0.9266,-0.9331,-0.9361,-0.9416,-0.9462,-0.9502,-0.9553,-0.9597,-0.963,-0.9653,-0.9671,-0.9725,-0.9726,-0.9727,-0.9782,-0.9783,-0.9763,-0.9722,-0.9699,-0.9685,-0.9742,-0.9742,-0.9742,0,-0.9042,-0.9095,-0.9143,-0.9224,-0.9243,-0.9269,-0.933,-0.9367,-0.9431,-0.9463,-0.9505,-0.9553,-0.9592,-0.9617,-0.9671,-0.967,-0.9697,-0.9727,-0.9728,-0.9735,-0.976,-0.9727,-0.9682,-0.968,-0.9741,-0.9741,-0.9742,0,-0.8979,-0.9063,-0.9102,-0.9132,-0.9227,-0.9244,-0.9285,-0.9349,-0.9382,-0.9435,-0.9457,-0.9513,-0.9543,-0.9586,-0.9647,-0.9659,-0.9695,-0.9725,-0.9723,-0.9721,-0.9727,-0.9725,-0.9684,-0.9744,-0.9744,-0.9744,-0.9744,0,-0.8951,-0.8978,-0.9075,-0.9099,-0.9131,-0.9202,-0.9231,-0.9277,-0.9334,-0.9368,-0.9428,-0.9458,-0.9538,-0.9577,-0.9625,-0.9664,-0.9677,-0.9704,-0.9716,-0.9698,-0.9695,-0.9716,-0.9718,-0.9744,-0.9744,-0.9744,-0.9744,0,-0.8886,-0.8952,-0.9,-0.9087,-0.911,-0.9129,-0.9204,-0.9229,-0.9279,-0.9322,-0.9336,-0.9414,-0.9464,-0.953,-0.96,-0.9632,-0.9664,-0.9684,-0.9643,-0.965,-0.9644,-0.9644,-0.9615,-0.9615,-0.9674,-0.9674,-0.9673,0,-0.8863,-0.8885,-0.8976,-0.9003,-0.9042,-0.9086,-0.912,-0.9191,-0.9224,-0.9298,-0.9315,-0.937,-0.9418,-0.9495,-0.9557,-0.9612,-0.9633,-0.9619,-0.9641,-0.9623,-0.9632,-0.963,-0.9633,-0.9613,-0.9612,-0.9611,-0.961,0,-0.8816,-0.8849,-0.8896,-0.8955,-0.8995,-0.9044,-0.9097,-0.9116,-0.9197,-0.9231,-0.9284,-0.9321,-0.9394,-0.9448,-0.9511,-0.9552,-0.9594,-0.9603,-0.9606,-0.9587,-0.9562,-0.9576,-0.9628,-0.9603,-0.9604,-0.9605,-0.9605,-0.9605,-0.8772,-0.8795,-0.8862,-0.8913,-0.8961,-0.9008,-0.9037,-0.9092,-0.9137,-0.9203,-0.9242,-0.9293,-0.9356,-0.9445,-0.9485,-0.9526,-0.9542,-0.9545,-0.9546,-0.9546,-0.954,-0.9557,-0.9537,-0.9538,-0.9538,-0.9538,-0.9538,0,-0.8728,-0.8775,-0.8821,-0.8893,-0.8934,-0.8972,-0.9032,-0.9063,-0.9108,-0.9164,-0.921,-0.9271,-0.9324,-0.9391,-0.9449,-0.9468,-0.9489,-0.9481,-0.948,-0.9489,-0.9522,-0.9514,-0.9463,-0.9463,-0.9463,-0.9463,-0.9463,-0.9463,-0.8709,-0.875,-0.8791,-0.8856,-0.8903,-0.8955,-0.8986,-0.903,-0.9076,-0.9141,-0.9186,-0.923,-0.9291,-0.9354,-0.9404,-0.9422,-0.944,-0.9426,-0.945,-0.9479,-0.9486,-0.9492,-0.9486,-0.9429,-0.9429,-0.9413,-0.9413,-0.9413]}]]